• In Netherlands
  • List of Countries
  • For 7 days
  • Water Temperature
  • Satellite Maps
  • Weather Map
  • Weather Widgets
  • user-avatar
    Login

    Hourly Weather Djelfa

    Today, 21 November, Tuesday

    Time Temperature Precipitation Wind Pressure Humidity
    00:00 +7°C° 0 mm 1 mps 667 mmHg 37%
    01:00 +7°C° 0 mm 1 mps 667 mmHg 38%
    02:00 +6°C° 0 mm 1 mps 666 mmHg 38%
    03:00 +6°C° 0 mm 1 mps 666 mmHg 39%
    04:00 +6°C° 0 mm 1 mps 666 mmHg 40%
    05:00 +5°C° 0 mm 1 mps 666 mmHg 40%
    06:00 +5°C° 0 mm 1 mps 666 mmHg 40%
    07:00 +7°C° 0 mm 1 mps 667 mmHg 35%
    08:00 +10°C° 0 mm 1 mps 668 mmHg 30%
    09:00 +12°C° 0 mm 1 mps 668 mmHg 25%
    10:00 +13°C° 0 mm 1 mps 669 mmHg 22%
    11:00 +14°C° 0 mm 1 mps 669 mmHg 19%
    12:00 +15°C° 0 mm 2 mps 669 mmHg 16%
    13:00 +16°C° 0 mm 1 mps 668 mmHg 15%
    14:00 +16°C° 0 mm 1 mps 668 mmHg 15%
    15:00 +16°C° 0 mm 1 mps 668 mmHg 14%
    16:00 +14°C° 0 mm 1 mps 667 mmHg 17%
    17:00 +12°C° 0 mm 1 mps 667 mmHg 20%
    18:00 +11°C° 0 mm 1 mps 666 mmHg 22%
    19:00 +10°C° 0 mm 1 mps 666 mmHg 23%
    20:00 +9°C° 0 mm 2 mps 666 mmHg 24%
    21:00 +9°C° 0 mm 2 mps 667 mmHg 25%
    22:00 +8°C° 0 mm 2 mps 666 mmHg 25%
    23:00 +9°C° 0 mm 1 mps 666 mmHg 26%

    Tomorrow, 22 November, Wednesday

    Time Temperature Precipitation Wind Pressure Humidity
    00:00 +8°C° 0 mm 1 mps 666 mmHg 27%
    01:00 +8°C° 0 mm 1 mps 665 mmHg 28%
    02:00 +7°C° 0 mm 2 mps 665 mmHg 29%
    03:00 +6°C° 0 mm 2 mps 665 mmHg 30%
    04:00 +6°C° 0 mm 2 mps 665 mmHg 31%
    05:00 +6°C° 0 mm 2 mps 665 mmHg 32%
    06:00 +6°C° 0 mm 2 mps 665 mmHg 33%
    07:00 +7°C° 0 mm 2 mps 665 mmHg 31%
    08:00 +9°C° 0 mm 2 mps 666 mmHg 28%
    09:00 +10°C° 0 mm 2 mps 666 mmHg 25%
    10:00 +12°C° 0 mm 2 mps 666 mmHg 23%
    11:00 +13°C° 0 mm 2 mps 666 mmHg 21%
    12:00 +14°C° 0 mm 2 mps 666 mmHg 19%
    13:00 +14°C° 0 mm 2 mps 666 mmHg 19%
    14:00 +13°C° 0 mm 3 mps 665 mmHg 19%
    15:00 +13°C° 0 mm 3 mps 665 mmHg 20%
    16:00 +12°C° 0 mm 3 mps 665 mmHg 23%
    17:00 +11°C° 0 mm 3 mps 665 mmHg 26%
    18:00 +10°C° 0 mm 3 mps 665 mmHg 29%
    19:00 +10°C° 0 mm 3 mps 665 mmHg 31%
    20:00 +9°C° 0 mm 2 mps 665 mmHg 33%
    21:00 +8°C° 0 mm 2 mps 665 mmHg 35%
    22:00 +8°C° 0 mm 2 mps 665 mmHg 36%
    23:00 +8°C° 0 mm 2 mps 664 mmHg 37%

    Day after tomorrow, 23 November, Thursday

    Time Temperature Precipitation Wind Pressure Humidity
    00:00 +7°C° 0 mm 2 mps 664 mmHg 38%
    01:00 +8°C° 0 mm 1 mps 664 mmHg 38%
    02:00 +8°C° 0 mm 1 mps 664 mmHg 39%
    03:00 +8°C° 0 mm 1 mps 664 mmHg 39%
    04:00 +8°C° 0 mm 1 mps 664 mmHg 39%
    05:00 +7°C° 0 mm 1 mps 664 mmHg 39%
    06:00 +7°C° 0 mm 1 mps 664 mmHg 40%
    07:00 +9°C° 0 mm 1 mps 665 mmHg 36%
    08:00 +10°C° 0 mm 1 mps 666 mmHg 32%
    09:00 +11°C° 0 mm 1 mps 666 mmHg 29%
    10:00 +12°C° 0 mm 1 mps 666 mmHg 27%
    11:00 +13°C° 0 mm 1 mps 667 mmHg 25%
    12:00 +14°C° 0 mm 1 mps 667 mmHg 23%
    13:00 +15°C° 0 mm 2 mps 667 mmHg 22%
    14:00 +15°C° 0 mm 2 mps 666 mmHg 22%
    15:00 +15°C° 0 mm 2 mps 666 mmHg 21%
    16:00 +14°C° 0 mm 2 mps 666 mmHg 24%
    17:00 +12°C° 0 mm 2 mps 666 mmHg 28%
    18:00 +10°C° 0 mm 2 mps 666 mmHg 31%
    19:00 +10°C° 0 mm 1 mps 666 mmHg 33%
    20:00 +9°C° 0 mm 1 mps 666 mmHg 35%
    21:00 +8°C° 0 mm 0 mps 666 mmHg 37%
    22:00 +7°C° 0 mm 0 mps 666 mmHg 38%
    23:00 +7°C° 0 mm 0 mps 666 mmHg 39%

    24 November, Friday

    Time Temperature Precipitation Wind Pressure Humidity
    00:00 +6°C° 0 mm 0 mps 666 mmHg 39%
    01:00 +6°C° 0 mm 0 mps 665 mmHg 40%
    02:00 +5°C° 0 mm 0 mps 665 mmHg 40%
    03:00 +5°C° 0 mm 0 mps 665 mmHg 41%
    04:00 +5°C° 0 mm 0 mps 665 mmHg 41%
    05:00 +5°C° 0 mm 0 mps 665 mmHg 41%
    06:00 +4°C° 0 mm 0 mps 665 mmHg 42%
    07:00 +7°C° 0 mm 0 mps 666 mmHg 36%
    08:00 +10°C° 0 mm 1 mps 667 mmHg 30%
    09:00 +12°C° 0 mm 1 mps 668 mmHg 25%
    10:00 +13°C° 0 mm 1 mps 668 mmHg 22%
    11:00 +15°C° 0 mm 2 mps 668 mmHg 20%
    12:00 +16°C° 0 mm 2 mps 668 mmHg 17%
    13:00 +16°C° 0 mm 2 mps 668 mmHg 17%
    14:00 +16°C° 0 mm 2 mps 668 mmHg 17%
    15:00 +17°C° 0 mm 2 mps 668 mmHg 16%
    16:00 +15°C° 0 mm 2 mps 667 mmHg 19%
    17:00 +13°C° 0 mm 2 mps 667 mmHg 23%
    18:00 +10°C° 0 mm 2 mps 667 mmHg 26%
    19:00 +10°C° 0 mm 2 mps 667 mmHg 27%
    20:00 +9°C° 0 mm 2 mps 667 mmHg 29%
    21:00 +9°C° 0 mm 2 mps 668 mmHg 30%
    22:00 +9°C° 0 mm 2 mps 667 mmHg 31%
    23:00 +8°C° 0 mm 2 mps 667 mmHg 33%

    25 November, Saturday

    Time Temperature Precipitation Wind Pressure Humidity
    00:00 +8°C° 0 mm 2 mps 667 mmHg 35%
    01:00 +7°C° 0 mm 2 mps 667 mmHg 36%
    02:00 +7°C° 0 mm 2 mps 667 mmHg 37%
    03:00 +7°C° 0 mm 2 mps 667 mmHg 38%
    04:00 +6°C° 0 mm 2 mps 667 mmHg 38%
    05:00 +6°C° 0 mm 2 mps 667 mmHg 38%
    06:00 +6°C° 0 mm 2 mps 667 mmHg 38%
    07:00 +8°C° 0 mm 2 mps 667 mmHg 33%
    08:00 +10°C° 0 mm 2 mps 668 mmHg 29%
    09:00 +12°C° 0 mm 2 mps 669 mmHg 25%
    10:00 +14°C° 0 mm 2 mps 669 mmHg 22%
    11:00 +14°C° 0 mm 3 mps 669 mmHg 20%
    12:00 +16°C° 0 mm 3 mps 669 mmHg 17%
    13:00 +16°C° 0 mm 3 mps 669 mmHg 18%
    14:00 +17°C° 0 mm 3 mps 669 mmHg 18%
    15:00 +17°C° 0 mm 3 mps 668 mmHg 18%
    16:00 +14°C° 0 mm 3 mps 668 mmHg 22%
    17:00 +12°C° 0 mm 3 mps 668 mmHg 26%
    18:00 +11°C° 0 mm 3 mps 668 mmHg 30%
    19:00 +10°C° 0 mm 3 mps 668 mmHg 32%
    20:00 +10°C° 0 mm 3 mps 668 mmHg 34%
    21:00 +9°C° 0 mm 3 mps 668 mmHg 36%
    22:00 +9°C° 0 mm 3 mps 668 mmHg 39%
    23:00 +9°C° 0 mm 3 mps 668 mmHg 42%

    26 November, Sunday

    Time Temperature Precipitation Wind Pressure Humidity
    00:00 +8°C° 0 mm 3 mps 668 mmHg 44%
    01:00 +8°C° 0 mm 2 mps 668 mmHg 46%
    02:00 +8°C° 0 mm 2 mps 668 mmHg 47%
    03:00 +8°C° 0 mm 2 mps 668 mmHg 49%
    04:00 +8°C° 0 mm 2 mps 668 mmHg 50%
    05:00 +8°C° 0 mm 2 mps 668 mmHg 50%
    06:00 +8°C° 0 mm 2 mps 668 mmHg 51%
    07:00 +9°C° 0 mm 2 mps 669 mmHg 48%
    08:00 +10°C° 0 mm 2 mps 669 mmHg 45%
    09:00 +12°C° 0 mm 2 mps 670 mmHg 42%
    10:00 +13°C° 0 mm 3 mps 670 mmHg 38%
    11:00 +14°C° 0 mm 3 mps 670 mmHg 34%
    12:00 +16°C° 0 mm 3 mps 670 mmHg 30%
    13:00 +17°C° 0 mm 3 mps 670 mmHg 29%
    14:00 +17°C° 0 mm 3 mps 669 mmHg 27%
    15:00 +17°C° 0 mm 3 mps 669 mmHg 25%
    16:00 +16°C° 0 mm 2 mps 669 mmHg 29%
    17:00 +14°C° 0 mm 2 mps 669 mmHg 33%
    18:00 +12°C° 0 mm 1 mps 668 mmHg 37%
    19:00 +12°C° 0 mm 1 mps 668 mmHg 38%
    20:00 +11°C° 0 mm 1 mps 669 mmHg 40%
    21:00 +10°C° 0 mm 1 mps 669 mmHg 41%
    22:00 +10°C° 0 mm 1 mps 668 mmHg 41%
    23:00 +10°C° 0 mm 1 mps 668 mmHg 41%
    Show more